This is the latest recevied weather packets stored in our database for station/object KK6LVQ-13. If no packets are shown the sender has not sent any weather packets the latest 10 day(s).
| Time | Temp. | Humidity | Pressure | Rain* | Wind** | Luminosity | Snow |
|---|---|---|---|---|---|---|---|
| 1777601266 | 15° C | 78% | 1018.3 hPa | 0 mm | - | 41 W/m² | - |
| 1777600963 | 15° C | 77% | 1018 hPa | 0 mm | - | 48 W/m² | - |
| 1777600659 | 15.56° C | 76% | 1018.3 hPa | 0 mm | - | 57 W/m² | - |
| 1777600355 | 16.11° C | 74% | 1018.2 hPa | 0 mm | - | 65 W/m² | - |
| 1777600051 | 16.11° C | 74% | 1018.2 hPa | 0 mm | - | 75 W/m² | - |
| 1777599747 | 16.11° C | 73% | 1018.2 hPa | 0 mm | - | 85 W/m² | - |
| 1777599443 | 16.67° C | 72% | 1018.2 hPa | 0 mm | - | 97 W/m² | - |
| 1777599141 | 16.67° C | 70% | 1018.3 hPa | 0 mm | - | 108 W/m² | - |
| 1777598840 | 17.22° C | 69% | 1018.3 hPa | 0 mm | - | 123 W/m² | - |
| 1777598540 | 17.78° C | 68% | 1017.8 hPa | 0 mm | - | 137 W/m² | - |
| 1777598235 | 18.33° C | 65% | 1017.9 hPa | 0 mm | - | 152 W/m² | - |
| 1777597933 | 18.89° C | 63% | 1018 hPa | 0 mm | - | 167 W/m² | - |
| 1777597632 | 18.89° C | 61% | 1017.9 hPa | 0 mm | - | 182 W/m² | - |
| 1777597328 | 18.89° C | 59% | 1017.9 hPa | 0 mm | - | 195 W/m² | - |
| 1777597023 | 19.44° C | 58% | 1017.8 hPa | 0 mm | - | 211 W/m² | - |
| 1777596721 | 20° C | 54% | 1017.8 hPa | 0 mm | - | 225 W/m² | - |
| 1777596417 | 20.56° C | 51% | 1018 hPa | 0 mm | - | 241 W/m² | - |
| 1777596114 | 20.56° C | 49% | 1017.7 hPa | 0 mm | - | 257 W/m² | - |
| 1777595810 | 20.56° C | 50% | 1017.9 hPa | 0 mm | - | 274 W/m² | - |
| 1777595505 | 20.56° C | 45% | 1017.8 hPa | 0 mm | - | 289 W/m² | - |
| 1777595202 | 20.56° C | 45% | 1017.9 hPa | 0 mm | - | 308 W/m² | - |
| 1777594898 | 21.11° C | 43% | 1017.8 hPa | 0 mm | - | 322 W/m² | - |
| 1777594594 | 20.56° C | 42% | 1017.7 hPa | 0 mm | - | 337 W/m² | - |
| 1777594291 | 21.11° C | 43% | 1017.9 hPa | 0 mm | - | 353 W/m² | - |
| 1777593987 | 21.11° C | 43% | 1017.7 hPa | 0 mm | - | 370 W/m² | - |
* Rain latest hour (hover to see other rain measurements)
** Current wind speed in m/s (hover to see current wind gust speed)